Regional Weather Roundup
Issued by NWS

Home | Current Version | Previous Version | Text Only | Print | Product List | Glossary Off
Versions: 1 2 3 4 5 6 7 8 9 10 11 12 13 14 15 16 17 18 19 20 21 22 23 24 25 26 27 28 29 30 31 32 33 34 35 36 37 38 39 40 41 42 43 44 45 46 47 48 49 50

000
ASUS45 KPSR 291710
RWRAZ

ARIZONA REGIONAL HOURLY WEATHER ROUNDUP
NATIONAL WEATHER SERVICE PHOENIX AZ
1000 AM MST THU JAN 29 2015

NOTE: FAIR INDICATES FEW OR NO CLOUDS BELOW 12,000 FEET WITH NO
SIGNIFICANT WEATHER AND/OR OBSTRUCTIONS TO VISIBILITY.

AZZ001>003-036-291800-
NORTHWEST ARIZONA

CITY           SKY/WX    TMP DP  RH WIND       PRES   REMARKS
BULLHEAD CITY  CLOUDY    64  45  48 N21       30.12S
KINGMAN        CLOUDY    52  43  71 NE7       30.19R
$$

AZZ004>008-015-016-018-291800-
NORTH CENTRAL ARIZONA

CITY           SKY/WX    TMP DP  RH WIND       PRES   REMARKS
GRAND CANYON   CLOUDY    42  31  64 E10       30.29S
PRESCOTT       CLOUDY    46  33  60 CALM      30.23R
FLAGSTAFF      CLOUDY    42  28  57 NE12G18   30.31R
PAYSON         CLOUDY    54  30  40 NE5       30.25R
$$

AZZ009>014-017-291800-
NORTHEAST ARIZONA

CITY           SKY/WX    TMP DP  RH WIND       PRES   REMARKS
WINSLOW        CLOUDY    45  35  68 CALM      30.31R
SAINT JOHNS    CLOUDY    43  31  62 W5        30.28S
WINDOW ROCK    CLOUDY    40  31  70 CALM      30.35R
SHOW LOW       CLOUDY    37  32  81 CALM      30.33R
$$

AZZ023-291800-
GREATER PHOENIX AREA

CITY           SKY/WX    TMP DP  RH WIND       PRES   REMARKS
PHOENIX        CLOUDY    64  46  52 CALM      30.07R
BUCKEYE          N/A     59  57  94 CALM      30.10R
GLENDALE       CLOUDY    61  54  77 CALM      30.10R
LUKE AFB       NOT AVBL
DEER VALLEY    CLOUDY    63  46  54 CALM      30.08R
SCOTTSDALE     CLOUDY    61  47  59 CALM      30.09R
MESA-FALCON    CLOUDY    61  39  44 N6        30.08R
MESA-GATEWAY   CLOUDY    59  52  77 VRB3      30.11R
CHANDLER       CLOUDY    59  54  82 CALM      30.09R
$$

AZZ027-028-291800-
SOUTHWEST MARICOPA COUNTY AND PINAL COUNTY

CITY           SKY/WX    TMP DP  RH WIND       PRES   REMARKS
CASA GRANDE    CLOUDY    61  50  67 CALM      30.10R
GILA BEND      CLOUDY    61  53  75 CALM      30.09R
$$

AZZ503-504-507>509-291800-
SOUTHEAST ARIZONA

CITY           SKY/WX    TMP DP  RH WIND       PRES   REMARKS
TUCSON         CLOUDY    61  45  55 SE16      30.12S
DAVIS-MONTHAN  CLOUDY    61  46  56 S6        30.11S
RYAN FIELD       N/A     59  50  72 NE5       30.12R
NOGALES        LGT RAIN  53  43  68 SE5       30.19R
SIERRA VISTA   CLOUDY    55  43  62 CALM      30.23R
DOUGLAS        CLOUDY    50  32  50 W6        30.23R
SAFFORD        CLOUDY    56  35  45 SE13      30.20R
$$

AZZ020-021-025-026-031-291800-
SOUTHWEST ARIZONA

CITY           SKY/WX    TMP DP  RH WIND       PRES   REMARKS
YUMA           CLOUDY    67  48  50 N7        30.07F
$$

CAZ031-033-041-043-047-048-061-291800-
SOUTHERN CALIFORNIA

CITY           SKY/WX    TMP DP  RH WIND       PRES   REMARKS
DOWNTOWN L.A.  CLOUDY    66  45  46 CALM      30.05R
L.A. AIRPORT   CLOUDY    65  44  46 NE5       30.05R
SAN DIEGO      CLOUDY    64  49  57 CALM      30.06R
BURBANK        CLOUDY    62  43  49 CALM      30.06R
ONTARIO        CLOUDY    63  46  54 NW3       30.07R
RIVERSIDE      CLOUDY    66  44  45 E6        30.08R
PALM SPRINGS   CLOUDY    67  41  38 SW5       30.11S
EL CENTRO NAS  CLOUDY    64  51  62 NW5       30.07S
IMPERIAL       CLOUDY    63  50  62 NW6       30.06F
BLYTHE         CLOUDY    61  50  67 SE6       30.10S
NEEDLES        CLOUDY    64  45  49 NW7       30.12R
$$

NVZ020-UTZ003-291800-
SOUTHERN NEVADA-UTAH

CITY           SKY/WX    TMP DP  RH WIND       PRES   REMARKS
LAS VEGAS      CLOUDY    57  42  57 S7        30.16R
SALT LAKE CITY PTSUNNY   35  32  88 CALM      30.36S
$$

NMZ009-TXZ055-291800-
NEW MEXICO-WEST TEXAS

CITY           SKY/WX    TMP DP  RH WIND       PRES   REMARKS
ALBUQUERQUE    CLOUDY    50  28  42 E28G36    30.40R
EL PASO        CLOUDY    57  37  47 N8        30.30R
$$


........................KEY........................
SKY/WX - SKY CONDITION/WEATHER
TMP    - TEMPERATURE IN FAHRENHEIT
DP     - DEW POINT IN FAHRENHEIT
RH     - RELATIVE HUMIDITY IN PERCENT
WIND   - DIRECTION AND SPEED IN MILES PER HOUR (MPH)
VRB    - VARIABLE WIND DIRECTION
PRES   - MEAN SEA LEVEL PRESSURE IN INCHES OF MERCURY
         F - FALLING PRESSURE   R - RISING PRESSURE
         S - STEADY PRESSURE
VSB    - VISIBILITY IN MILES
HX     - HEAT INDEX IN FAHRENHEIT
WCI    - WIND CHILL INDEX IN FAHRENHEIT
TC     - TEMPERATURE IN CELSIUS WHICH IS ALSO KNOWN AS
         TEMPERATURE IN CENTIGRADE
AFB    - AIR FORCE BASE
         LUKE AFB IS LUKE AIR FORCE BASE
         DAVIS-MONTHAN IS DAVIS-MONTHAN AIR FORCE BASE
NAS    - NAVAL AIR STATION
         EL CENTRO NAS IS EL CENTRO NAVAL AIR STATION
N/A    - NOT AVAILABLE


USA.gov is the U.S. government's official web portal to all federal, state and local government web resources and services.